QPF
0.01 0.01 0.01 0.01 0.01 0.02 0.02 0.02 0.03 0.04 0.03 0.03 0.03 0.04 0.05 0.05 0.06 0.06 0.07 0.08 0.07 0.08 0.07 0.07 0.07 0.05 0.05 0.06 0.07 0.05 0.04 0.06 0.06 0.03 0.03 0.04 0.05 0.06 0.07 0.06 0.05 0.05 0.04
0.01 0.01 0.01 0.01 0.02 0.02 0.03 0.03 0.04 0.04 0.04 0.04 0.04 0.04 0.04 0.05 0.05 0.06 0.07 0.07 0.06 0.06 0.05 0.06 0.06 0.06 0.07 0.08 0.08 0.07 0.06 0.07 0.07 0.06 0.05 0.07 0.07 0.05 0.06 0.07 0.06 0.05 0.04
0.00 0.00 0.01 0.02 0.03 0.04 0.04 0.03 0.03 0.03 0.04 0.04 0.04 0.03 0.04 0.04 0.06 0.06 0.06 0.06 0.06 0.04 0.04 0.05 0.05 0.06 0.08 0.09 0.07 0.07 0.07 0.06 0.07 0.07 0.06 0.07 0.05 0.04 0.05 0.05 0.06 0.06 0.05
0.01 0.01 0.01 0.02 0.03 0.04 0.05 0.05 0.03 0.03 0.03 0.03 0.03 0.03 0.04 0.04 0.05 0.05 0.05 0.06 0.06 0.05 0.06 0.06 0.07 0.07 0.08 0.09 0.11 0.11 0.08 0.08 0.09 0.08 0.07 0.07 0.07 0.05 0.05 0.06 0.06 0.06 0.05
0.01 0.01 0.02 0.02 0.03 0.04 0.05 0.04 0.04 0.03 0.03 0.03 0.03 0.03 0.03 0.02 0.02 0.04 0.04 0.05 0.06 0.05 0.07 0.08 0.07 0.07 0.08 0.10 0.08 0.07 0.07 0.09 0.10 0.10 0.09 0.09 0.08 0.08 0.06 0.06 0.06 0.05 0.05
0.01 0.02 0.02 0.03 0.04 0.03 0.03 0.03 0.03 0.04 0.04 0.04 0.03 0.03 0.02 0.01 0.01 0.02 0.04 0.04 0.05 0.05 0.06 0.07 0.06 0.05 0.03 0.05 0.08 0.08 0.09 0.10 0.10 0.10 0.09 0.08 0.09 0.08 0.07 0.07 0.06 0.06 0.05
0.01 0.02 0.03 0.03 0.03 0.02 0.02 0.02 0.03 0.03 0.04 0.04 0.04 0.03 0.02 0.02 0.03 0.03 0.03 0.04 0.04 0.05 0.05 0.05 0.04 0.02 0.02 0.04 0.06 0.06 0.07 0.09 0.09 0.10 0.09 0.08 0.08 0.08 0.09 0.08 0.08 0.06 0.06
0.02 0.03 0.04 0.03 0.03 0.03 0.03 0.03 0.04 0.04 0.04 0.03 0.02 0.02 0.02 0.03 0.04 0.03 0.03 0.03 0.04 0.04 0.04 0.03 0.04 0.04 0.04 0.05 0.06 0.06 0.06 0.04 0.04 0.05 0.06 0.06 0.06 0.06 0.07 0.08 0.09 0.10 0.09
0.03 0.03 0.04 0.04 0.04 0.03 0.04 0.04 0.04 0.04 0.03 0.03 0.02 0.02 0.03 0.03 0.03 0.03 0.03 0.03 0.04 0.05 0.05 0.05 0.04 0.03 0.03 0.04 0.06 0.07 0.06 0.05 0.04 0.05 0.05 0.05 0.04 0.05 0.06 0.09 0.11 0.11 0.09
0.03 0.04 0.04 0.05 0.05 0.06 0.06 0.05 0.04 0.04 0.04 0.03 0.03 0.03 0.03 0.03 0.03 0.03 0.03 0.03 0.03 0.03 0.04 0.05 0.03 0.02 0.03 0.03 0.03 0.06 0.06 0.05 0.04 0.06 0.06 0.07 0.07 0.08 0.07 0.08 0.09 0.10 0.09
0.02 0.03 0.03 0.04 0.05 0.05 0.05 0.05 0.04 0.04 0.04 0.04 0.03 0.03 0.03 0.03 0.03 0.03 0.04 0.03 0.03 0.02 0.02 0.02 0.02 0.02 0.02 0.02 0.03 0.05 0.05 0.05 0.06 0.08 0.10 0.10 0.11 0.11 0.11 0.09 0.09 0.09 0.09
0.03 0.03 0.04 0.04 0.04 0.04 0.04 0.03 0.04 0.04 0.04 0.03 0.03 0.03 0.03 0.03 0.03 0.02 0.03 0.03 0.03 0.03 0.03 0.02 0.03 0.04 0.03 0.03 0.03 0.04 0.06 0.06 0.07 0.09 0.10 0.11 0.11 0.10 0.09 0.08 0.09 0.10 0.10
0.02 0.02 0.03 0.03 0.04 0.04 0.04 0.04 0.03 0.03 0.03 0.03 0.03 0.03 0.02 0.02 0.03 0.02 0.02 0.02 0.02 0.02 0.02 0.03 0.04 0.04 0.03 0.03 0.03 0.04 0.06 0.06 0.06 0.07 0.08 0.09 0.09 0.09 0.07 0.07 0.08 0.08 0.08
0.02 0.02 0.02 0.03 0.03 0.03 0.03 0.04 0.03 0.03 0.02 0.03 0.03 0.02 0.03 0.03 0.04 0.03 0.02 0.03 0.03 0.02 0.02 0.02 0.04 0.03 0.02 0.02 0.02 0.03 0.04 0.04 0.04 0.05 0.07 0.07 0.08 0.08 0.08 0.08 0.08 0.08 0.09
0.03 0.03 0.03 0.02 0.04 0.04 0.04 0.04 0.04 0.04 0.03 0.02 0.02 0.03 0.04 0.06 0.06 0.05 0.04 0.04 0.04 0.04 0.04 0.03 0.03 0.04 0.03 0.03 0.02 0.03 0.04 0.05 0.05 0.05 0.06 0.06 0.07 0.08 0.07 0.08 0.09 0.09 0.09
0.06 0.06 0.05 0.03 0.04 0.07 0.07 0.05 0.05 0.05 0.05 0.04 0.03 0.04 0.06 0.06 0.05 0.05 0.04 0.04 0.04 0.04 0.05 0.04 0.04 0.05 0.04 0.03 0.03 0.03 0.04 0.05 0.06 0.07 0.07 0.07 0.07 0.07 0.08 0.08 0.08 0.09 0.08
0.03 0.03 0.04 0.04 0.03 0.05 0.08 0.08 0.07 0.07 0.07 0.09 0.07 0.07 0.06 0.06 0.05 0.04 0.04 0.04 0.04 0.04 0.03 0.04 0.04 0.04 0.05 0.05 0.04 0.04 0.04 0.05 0.06 0.06 0.06 0.06 0.07 0.06 0.07 0.07 0.07 0.07 0.07
0.02 0.02 0.03 0.04 0.02 0.02 0.03 0.05 0.06 0.08 0.07 0.06 0.06 0.05 0.05 0.06 0.05 0.05 0.04 0.04 0.04 0.04 0.03 0.03 0.03 0.04 0.05 0.06 0.06 0.06 0.06 0.06 0.06 0.06 0.06 0.06 0.06 0.06 0.05 0.06 0.06 0.05 0.06
0.02 0.02 0.02 0.03 0.01 0.01 0.01 0.02 0.03 0.04 0.06 0.05 0.06 0.06 0.06 0.06 0.05 0.04 0.03 0.03 0.03 0.03 0.03 0.04 0.03 0.04 0.05 0.06 0.07 0.08 0.08 0.08 0.08 0.07 0.07 0.07 0.06 0.06 0.05 0.05 0.05 0.05 0.05
0.02 0.02 0.02 0.01 0.01 0.01 0.01 0.02 0.03 0.04 0.06 0.05 0.06 0.06 0.05 0.05 0.05 0.04 0.04 0.03 0.03 0.02 0.02 0.03 0.03 0.04 0.04 0.05 0.06 0.06 0.07 0.08 0.09 0.09 0.07 0.06 0.05 0.04 0.04 0.04 0.04 0.04 0.05
0.02 0.02 0.02 0.02 0.02 0.03 0.04 0.04 0.05 0.06 0.06 0.06 0.05 0.05 0.04 0.04 0.05 0.05 0.04 0.03 0.02 0.02 0.02 0.02 0.03 0.03 0.04 0.05 0.05 0.06 0.07 0.08 0.09 0.10 0.07 0.05 0.04 0.04 0.03 0.04 0.03 0.04 0.05
0.02 0.02 0.02 0.03 0.04 0.05 0.06 0.06 0.07 0.07 0.07 0.07 0.06 0.06 0.05 0.05 0.06 0.06 0.05 0.03 0.03 0.02 0.02 0.02 0.03 0.03 0.03 0.04 0.04 0.05 0.06 0.07 0.08 0.10 0.08 0.06 0.05 0.04 0.04 0.04 0.04 0.04 0.04
0.01 0.01 0.02 0.03 0.04 0.04 0.04 0.04 0.05 0.06 0.06 0.07 0.05 0.04 0.05 0.05 0.04 0.04 0.05 0.04 0.04 0.04 0.04 0.04 0.05 0.05 0.05 0.05 0.05 0.05 0.06 0.07 0.07 0.07 0.06 0.05 0.05 0.04 0.03 0.04 0.04 0.04 0.04
0.02 0.02 0.02 0.03 0.03 0.03 0.03 0.03 0.03 0.03 0.03 0.04 0.05 0.04 0.04 0.04 0.04 0.03 0.03 0.03 0.04 0.04 0.04 0.05 0.05 0.06 0.06 0.06 0.05 0.05 0.05 0.05 0.05 0.04 0.03 0.03 0.03 0.03 0.03 0.03 0.04 0.04 0.04
0.02 0.03 0.03 0.03 0.03 0.03 0.03 0.03 0.03 0.03 0.04 0.04 0.04 0.03 0.03 0.03 0.03 0.04 0.03 0.04 0.04 0.05 0.05 0.06 0.06 0.07 0.08 0.08 0.07 0.06 0.05 0.04 0.03 0.03 0.03 0.03 0.03 0.04 0.04 0.04 0.04 0.04 0.04
0.03 0.02 0.02 0.02 0.02 0.02 0.02 0.02 0.02 0.02 0.03 0.03 0.02 0.03 0.02 0.03 0.03 0.03 0.03 0.04 0.05 0.05 0.05 0.04 0.04 0.05 0.06 0.06 0.05 0.04 0.04 0.03 0.03 0.03 0.03 0.04 0.05 0.05 0.04 0.04 0.04 0.04 0.04
MSLP
1009.26 1009.72 1010.21 1010.67 1011.04 1011.26 1011.33 1011.27 1011.12 1010.95 1010.81 1010.76 1010.82 1010.98 1011.22 1011.50 1011.76 1011.97 1012.10 1012.15 1012.13 1012.07 1012.00 1011.95 1011.94 1011.97 1012.03 1012.12 1012.20 1012.26 1012.28 1012.27 1012.22 1012.15 1012.08 1012.03 1012.01 1012.03 1012.10 1012.21 1012.35 1012.52 1012.70
1008.42 1008.85 1009.33 1009.79 1010.18 1010.45 1010.59 1010.59 1010.52 1010.40 1010.32 1010.31 1010.40 1010.59 1010.85 1011.16 1011.45 1011.69 1011.85 1011.92 1011.90 1011.83 1011.73 1011.64 1011.58 1011.57 1011.61 1011.69 1011.79 1011.89 1011.97 1012.01 1012.03 1012.01 1011.98 1011.95 1011.93 1011.94 1011.98 1012.05 1012.16 1012.29 1012.45
1007.56 1007.98 1008.45 1008.93 1009.34 1009.66 1009.85 1009.93 1009.93 1009.89 1009.87 1009.90 1010.03 1010.24 1010.53 1010.84 1011.15 1011.41 1011.58 1011.66 1011.65 1011.58 1011.47 1011.36 1011.28 1011.25 1011.28 1011.36 1011.48 1011.61 1011.73 1011.82 1011.88 1011.91 1011.91 1011.90 1011.88 1011.87 1011.89 1011.94 1012.01 1012.11 1012.24
1006.72 1007.16 1007.64 1008.13 1008.57 1008.92 1009.17 1009.32 1009.39 1009.41 1009.45 1009.53 1009.68 1009.91 1010.19 1010.51 1010.81 1011.06 1011.23 1011.32 1011.31 1011.25 1011.14 1011.04 1010.97 1010.94 1010.98 1011.07 1011.21 1011.36 1011.51 1011.64 1011.73 1011.79 1011.81 1011.81 1011.80 1011.79 1011.80 1011.82 1011.87 1011.94 1012.03
1005.93 1006.42 1006.93 1007.43 1007.89 1008.28 1008.57 1008.76 1008.89 1008.97 1009.06 1009.17 1009.34 1009.56 1009.83 1010.11 1010.38 1010.61 1010.77 1010.84 1010.85 1010.79 1010.71 1010.63 1010.59 1010.59 1010.65 1010.76 1010.91 1011.08 1011.25 1011.40 1011.51 1011.59 1011.63 1011.64 1011.63 1011.63 1011.63 1011.65 1011.68 1011.74 1011.80
1005.26 1005.79 1006.34 1006.86 1007.33 1007.73 1008.04 1008.27 1008.44 1008.56 1008.68 1008.81 1008.98 1009.18 1009.42 1009.66 1009.88 1010.07 1010.19 1010.25 1010.26 1010.22 1010.17 1010.13 1010.12 1010.15 1010.24 1010.38 1010.55 1010.73 1010.91 1011.06 1011.18 1011.26 1011.30 1011.32 1011.33 1011.33 1011.35 1011.37 1011.40 1011.45 1011.51
1004.73 1005.32 1005.89 1006.42 1006.89 1007.29 1007.60 1007.85 1008.03 1008.18 1008.31 1008.45 1008.62 1008.80 1008.99 1009.18 1009.35 1009.49 1009.57 1009.61 1009.61 1009.59 1009.56 1009.55 1009.58 1009.65 1009.77 1009.93 1010.11 1010.29 1010.46 1010.60 1010.71 1010.78 1010.83 1010.85 1010.87 1010.89 1010.92 1010.96 1011.01 1011.06 1011.12
1004.36 1005.00 1005.58 1006.10 1006.56 1006.93 1007.23 1007.47 1007.66 1007.82 1007.96 1008.11 1008.27 1008.43 1008.59 1008.74 1008.86 1008.95 1008.99 1009.01 1009.00 1008.98 1008.98 1009.00 1009.05 1009.15 1009.28 1009.43 1009.60 1009.77 1009.92 1010.03 1010.12 1010.18 1010.21 1010.24 1010.26 1010.30 1010.35 1010.41 1010.48 1010.55 1010.62
1004.18 1004.83 1005.41 1005.90 1006.32 1006.65 1006.92 1007.14 1007.32 1007.48 1007.64 1007.80 1007.96 1008.12 1008.26 1008.38 1008.47 1008.53 1008.55 1008.54 1008.52 1008.50 1008.50 1008.53 1008.59 1008.69 1008.81 1008.95 1009.09 1009.22 1009.33 1009.40 1009.45 1009.48 1009.50 1009.51 1009.54 1009.58 1009.65 1009.73 1009.83 1009.93 1010.01
1004.17 1004.81 1005.35 1005.79 1006.15 1006.43 1006.65 1006.84 1007.01 1007.18 1007.36 1007.54 1007.72 1007.89 1008.04 1008.15 1008.23 1008.27 1008.28 1008.26 1008.23 1008.20 1008.19 1008.20 1008.25 1008.32 1008.41 1008.51 1008.60 1008.67 1008.72 1008.75 1008.75 1008.74 1008.73 1008.73 1008.74 1008.79 1008.86 1008.95 1009.07 1009.18 1009.29
1004.33 1004.91 1005.38 1005.75 1006.03 1006.25 1006.42 1006.58 1006.75 1006.92 1007.12 1007.33 1007.54 1007.74 1007.92 1008.05 1008.15 1008.19 1008.19 1008.16 1008.12 1008.07 1008.04 1008.02 1008.03 1008.05 1008.09 1008.12 1008.14 1008.15 1008.13 1008.10 1008.05 1007.99 1007.94 1007.92 1007.91 1007.94 1008.01 1008.10 1008.21 1008.34 1008.46
1004.61 1005.11 1005.49 1005.77 1005.96 1006.11 1006.23 1006.36 1006.51 1006.70 1006.92 1007.16 1007.42 1007.67 1007.88 1008.05 1008.17 1008.22 1008.23 1008.20 1008.14 1008.07 1008.00 1007.94 1007.89 1007.84 1007.81 1007.76 1007.71 1007.64 1007.56 1007.46 1007.36 1007.26 1007.17 1007.11 1007.08 1007.09 1007.13 1007.20 1007.29 1007.41 1007.53
1005.00 1005.38 1005.65 1005.83 1005.94 1006.01 1006.09 1006.18 1006.33 1006.52 1006.76 1007.04 1007.34 1007.62 1007.88 1008.08 1008.22 1008.30 1008.32 1008.28 1008.20 1008.10 1007.99 1007.87 1007.75 1007.64 1007.52 1007.41 1007.28 1007.14 1007.00 1006.85 1006.70 1006.57 1006.45 1006.35 1006.29 1006.26 1006.26 1006.29 1006.34 1006.43 1006.53
1005.43 1005.69 1005.84 1005.92 1005.95 1005.96 1005.99 1006.06 1006.19 1006.39 1006.65 1006.95 1007.27 1007.58 1007.86 1008.09 1008.25 1008.33 1008.35 1008.30 1008.21 1008.07 1007.91 1007.74 1007.56 1007.38 1007.20 1007.02 1006.83 1006.65 1006.46 1006.28 1006.10 1005.94 1005.80 1005.68 1005.58 1005.50 1005.45 1005.43 1005.42 1005.45 1005.51
1005.86 1006.00 1006.05 1006.05 1006.01 1005.97 1005.96 1006.01 1006.13 1006.32 1006.58 1006.89 1007.21 1007.53 1007.81 1008.04 1008.20 1008.28 1008.28 1008.22 1008.10 1007.93 1007.74 1007.52 1007.30 1007.07 1006.84 1006.61 1006.39 1006.18 1005.97 1005.78 1005.60 1005.43 1005.28 1005.13 1005.00 1004.88 1004.78 1004.68 1004.61 1004.56 1004.55
1006.26 1006.29 1006.26 1006.19 1006.11 1006.04 1006.01 1006.05 1006.16 1006.34 1006.59 1006.87 1007.18 1007.47 1007.73 1007.94 1008.07 1008.13 1008.12 1008.04 1007.89 1007.70 1007.48 1007.24 1006.99 1006.73 1006.48 1006.24 1006.02 1005.81 1005.61 1005.43 1005.26 1005.10 1004.95 1004.80 1004.64 1004.48 1004.31 1004.15 1003.99 1003.85 1003.74
1006.59 1006.55 1006.47 1006.36 1006.26 1006.18 1006.16 1006.19 1006.30 1006.47 1006.69 1006.94 1007.21 1007.46 1007.67 1007.83 1007.93 1007.96 1007.92 1007.81 1007.66 1007.46 1007.23 1006.99 1006.73 1006.48 1006.24 1006.02 1005.81 1005.62 1005.45 1005.30 1005.16 1005.02 1004.88 1004.72 1004.54 1004.34 1004.11 1003.87 1003.62 1003.37 1003.16
1006.83 1006.76 1006.66 1006.55 1006.47 1006.41 1006.40 1006.45 1006.56 1006.71 1006.91 1007.12 1007.33 1007.53 1007.68 1007.79 1007.84 1007.83 1007.77 1007.66 1007.50 1007.31 1007.10 1006.87 1006.65 1006.43 1006.22 1006.03 1005.86 1005.71 1005.58 1005.46 1005.35 1005.23 1005.10 1004.93 1004.73 1004.48 1004.19 1003.86 1003.51 1003.15 1002.82
1007.00 1006.93 1006.85 1006.77 1006.73 1006.72 1006.75 1006.82 1006.94 1007.09 1007.25 1007.42 1007.58 1007.72 1007.82 1007.87 1007.88 1007.85 1007.77 1007.66 1007.52 1007.36 1007.18 1007.01 1006.83 1006.66 1006.50 1006.35 1006.23 1006.12 1006.02 1005.93 1005.84 1005.73 1005.59 1005.41 1005.17 1004.86 1004.50 1004.08 1003.62 1003.14 1002.68
1007.13 1007.08 1007.04 1007.03 1007.04 1007.09 1007.17 1007.28 1007.41 1007.56 1007.70 1007.84 1007.95 1008.03 1008.08 1008.10 1008.08 1008.04 1007.96 1007.87 1007.77 1007.66 1007.54 1007.42 1007.31 1007.20 1007.09 1007.00 1006.91 1006.83 1006.76 1006.68 1006.59 1006.46 1006.29 1006.07 1005.77 1005.39 1004.94 1004.41 1003.84 1003.23 1002.63
1007.25 1007.25 1007.26 1007.31 1007.39 1007.49 1007.62 1007.77 1007.92 1008.07 1008.20 1008.31 1008.39 1008.43 1008.45 1008.44 1008.42 1008.38 1008.33 1008.28 1008.23 1008.18 1008.13 1008.09 1008.04 1007.99 1007.94 1007.88 1007.83 1007.76 1007.69 1007.59 1007.47 1007.30 1007.07 1006.77 1006.39 1005.92 1005.36 1004.71 1004.01 1003.27 1002.52
1007.40 1007.44 1007.51 1007.61 1007.74 1007.90 1008.07 1008.24 1008.40 1008.54 1008.66 1008.75 1008.80 1008.83 1008.83 1008.82 1008.81 1008.79 1008.78 1008.79 1008.80 1008.83 1008.85 1008.88 1008.90 1008.91 1008.90 1008.87 1008.82 1008.75 1008.65 1008.51 1008.33 1008.09 1007.77 1007.38 1006.89 1006.29 1005.61 1004.83 1003.98 1003.09 1002.20
1007.59 1007.67 1007.77 1007.90 1008.07 1008.24 1008.42 1008.60 1008.76 1008.89 1008.99 1009.06 1009.10 1009.11 1009.12 1009.12 1009.13 1009.15 1009.20 1009.26 1009.34 1009.44 1009.54 1009.63 1009.71 1009.76 1009.78 1009.77 1009.72 1009.62 1009.47 1009.27 1009.01 1008.67 1008.25 1007.73 1007.11 1006.38 1005.56 1004.63 1003.64 1002.60 1001.56
1007.81 1007.90 1008.01 1008.15 1008.30 1008.47 1008.63 1008.79 1008.92 1009.02 1009.10 1009.15 1009.17 1009.19 1009.20 1009.22 1009.26 1009.33 1009.43 1009.55 1009.70 1009.86 1010.01 1010.16 1010.29 1010.38 1010.42 1010.41 1010.34 1010.21 1010.01 1009.74 1009.39 1008.95 1008.42 1007.77 1007.01 1006.15 1005.17 1004.10 1002.96 1001.78 1000.60
1008.02 1008.09 1008.18 1008.28 1008.40 1008.53 1008.64 1008.75 1008.84 1008.90 1008.94 1008.97 1008.98 1008.99 1009.02 1009.06 1009.13 1009.24 1009.38 1009.56 1009.75 1009.96 1010.17 1010.36 1010.52 1010.64 1010.70 1010.69 1010.61 1010.45 1010.21 1009.88 1009.45 1008.91 1008.27 1007.51 1006.62 1005.62 1004.51 1003.31 1002.04 1000.73 999.43
1008.14 1008.17 1008.21 1008.27 1008.33 1008.38 1008.44 1008.48 1008.51 1008.52 1008.53 1008.52 1008.52 1008.54 1008.57 1008.63 1008.73 1008.87 1009.04 1009.25 1009.48 1009.73 1009.96 1010.19 1010.37 1010.51 1010.58 1010.59 1010.51 1010.34 1010.07 1009.70 1009.22 1008.62 1007.89 1007.03 1006.05 1004.94 1003.72 1002.41 1001.03 999.63 998.24
Thickness
5794 5791 5787 5784 5781 5778 5775 5773 5771 5769 5767 5764 5762 5759 5757 5755 5752 5749 5747 5746 5743 5742 5741 5741 5739 5739 5738 5738 5738 5737 5735 5732 5726 5731 5734 5737 5736 5735 5735 5735 5734 5733 5732
5792 5788 5784 5782 5779 5775 5772 5770 5768 5765 5764 5761 5758 5755 5753 5751 5749 5746 5743 5741 5739 5737 5736 5735 5734 5734 5732 5731 5730 5729 5729 5728 5724 5721 5725 5727 5728 5729 5729 5728 5728 5728 5727
5790 5785 5781 5778 5775 5771 5768 5766 5764 5761 5759 5757 5753 5750 5748 5746 5744 5742 5740 5737 5736 5734 5733 5731 5729 5727 5725 5724 5723 5722 5722 5723 5720 5717 5718 5720 5721 5722 5721 5721 5721 5721 5721
5787 5781 5777 5774 5771 5768 5765 5761 5759 5757 5754 5751 5749 5746 5744 5742 5739 5737 5735 5733 5731 5730 5729 5727 5725 5722 5719 5718 5717 5716 5715 5713 5713 5711 5711 5712 5712 5714 5712 5710 5710 5711 5712
5782 5777 5773 5770 5767 5763 5760 5757 5754 5751 5750 5747 5744 5741 5739 5737 5734 5731 5729 5729 5726 5725 5723 5722 5720 5719 5716 5713 5712 5709 5708 5706 5705 5703 5702 5702 5703 5702 5701 5702 5700 5701 5703
5776 5772 5768 5764 5761 5756 5754 5751 5748 5745 5743 5740 5738 5735 5732 5730 5727 5725 5723 5722 5720 5718 5716 5716 5715 5713 5711 5709 5706 5704 5702 5699 5697 5695 5694 5693 5694 5695 5695 5694 5692 5691 5690
5769 5765 5762 5758 5754 5751 5749 5745 5742 5738 5736 5733 5731 5728 5725 5722 5720 5718 5717 5715 5713 5712 5711 5709 5709 5709 5705 5702 5700 5698 5697 5696 5694 5691 5688 5688 5688 5689 5688 5686 5684 5683 5683
5761 5757 5754 5751 5747 5744 5741 5737 5734 5732 5729 5726 5724 5722 5719 5716 5713 5711 5709 5708 5707 5706 5706 5704 5701 5699 5698 5694 5693 5692 5691 5691 5690 5688 5686 5686 5686 5685 5683 5681 5680 5679 5679
5752 5749 5746 5743 5739 5736 5733 5729 5727 5725 5722 5720 5718 5716 5713 5710 5707 5705 5702 5701 5701 5700 5700 5699 5696 5693 5690 5687 5685 5684 5684 5684 5685 5683 5682 5681 5680 5680 5678 5674 5672 5669 5668
5744 5741 5739 5736 5732 5727 5724 5722 5720 5718 5715 5714 5712 5711 5708 5705 5701 5699 5695 5695 5694 5694 5693 5692 5690 5686 5683 5680 5678 5677 5675 5676 5676 5675 5674 5674 5674 5673 5672 5669 5666 5662 5661
5736 5733 5731 5728 5724 5721 5718 5714 5712 5710 5709 5707 5706 5705 5703 5700 5696 5693 5689 5688 5687 5686 5686 5685 5684 5680 5677 5674 5672 5671 5670 5669 5668 5668 5667 5667 5666 5666 5664 5663 5661 5658 5655
5726 5723 5721 5719 5717 5716 5711 5708 5706 5704 5702 5701 5699 5698 5697 5695 5691 5687 5684 5681 5680 5678 5678 5679 5677 5674 5671 5669 5667 5666 5665 5663 5662 5660 5659 5659 5658 5657 5657 5655 5654 5653 5651
5714 5712 5710 5709 5708 5707 5703 5700 5699 5697 5696 5695 5693 5691 5690 5689 5685 5682 5678 5675 5673 5671 5672 5671 5669 5666 5664 5663 5662 5660 5658 5656 5655 5653 5651 5651 5651 5651 5649 5648 5647 5645 5644
5703 5701 5700 5699 5697 5697 5696 5694 5692 5690 5689 5688 5686 5684 5683 5681 5677 5674 5671 5669 5666 5665 5663 5662 5661 5660 5659 5657 5656 5654 5652 5650 5648 5647 5646 5645 5645 5643 5641 5640 5637 5636 5634
5693 5692 5691 5691 5689 5687 5687 5686 5685 5684 5682 5679 5678 5677 5674 5671 5667 5664 5662 5660 5658 5656 5654 5654 5654 5654 5652 5652 5651 5649 5647 5645 5642 5640 5639 5638 5636 5635 5633 5632 5630 5628 5625
5683 5682 5682 5682 5681 5680 5678 5678 5677 5676 5674 5672 5670 5667 5666 5662 5659 5657 5655 5652 5650 5647 5645 5647 5646 5645 5644 5643 5642 5641 5639 5637 5635 5633 5632 5630 5628 5626 5625 5624 5622 5620 5618
5674 5673 5673 5673 5672 5672 5671 5669 5667 5666 5664 5662 5659 5658 5656 5652 5650 5648 5646 5643 5641 5638 5638 5639 5638 5637 5636 5634 5633 5632 5631 5630 5629 5627 5625 5623 5621 5619 5617 5615 5613 5611 5610
5666 5665 5664 5664 5664 5664 5663 5662 5661 5659 5657 5655 5652 5648 5645 5643 5640 5638 5635 5633 5633 5633 5633 5633 5631 5629 5628 5627 5625 5624 5624 5623 5621 5619 5617 5615 5614 5611 5609 5607 5606 5604 5602
5658 5658 5656 5656 5656 5656 5655 5655 5654 5652 5650 5647 5645 5640 5636 5634 5630 5628 5626 5626 5628 5627 5627 5626 5624 5622 5621 5619 5618 5617 5616 5614 5613 5612 5610 5608 5606 5603 5601 5600 5599 5596 5595
5651 5649 5648 5649 5648 5648 5648 5647 5645 5644 5642 5639 5636 5633 5630 5625 5623 5621 5619 5619 5620 5619 5620 5618 5616 5614 5612 5611 5609 5608 5607 5606 5605 5603 5601 5600 5599 5597 5595 5593 5592 5591 5589
5644 5643 5641 5642 5642 5640 5639 5637 5636 5635 5633 5631 5629 5627 5623 5621 5619 5618 5615 5613 5613 5612 5612 5610 5608 5606 5605 5603 5601 5600 5599 5598 5596 5594 5593 5591 5590 5589 5588 5587 5586 5585 5584
5637 5637 5636 5635 5634 5632 5631 5630 5629 5627 5626 5624 5622 5619 5615 5614 5613 5611 5609 5608 5606 5605 5604 5603 5602 5600 5597 5596 5594 5592 5591 5589 5588 5586 5584 5583 5582 5582 5581 5580 5580 5579 5578
5630 5630 5629 5628 5627 5624 5623 5622 5621 5620 5618 5616 5614 5611 5608 5606 5606 5604 5602 5601 5600 5599 5597 5596 5594 5592 5590 5588 5587 5585 5583 5581 5580 5579 5578 5576 5575 5575 5574 5574 5573 5572 5572
5622 5622 5621 5620 5618 5616 5615 5614 5613 5612 5610 5608 5606 5603 5601 5599 5598 5597 5596 5595 5593 5592 5590 5589 5587 5585 5583 5581 5578 5576 5574 5572 5571 5571 5571 5570 5569 5568 5568 5568 5567 5567 5566
5615 5614 5612 5611 5610 5609 5607 5606 5604 5602 5601 5599 5597 5595 5594 5593 5591 5590 5589 5588 5586 5585 5583 5581 5579 5578 5575 5573 5570 5567 5565 5564 5563 5563 5563 5563 5562 5562 5562 5561 5561 5560 5560
5606 5605 5604 5603 5601 5600 5599 5597 5596 5595 5593 5591 5590 5589 5587 5585 5584 5583 5581 5580 5578 5577 5575 5574 5572 5570 5567 5565 5562 5560 5558 5557 5557 5556 5556 5556 5556 5556 5555 5554 5554 5554 5554